Time,TemperatureF,DewpointF,PressureIn,WindDirection,WindDirectionDegrees,WindSpeedMPH,WindSpeedGustMPH,Humidity,HourlyPrecipIn,Conditions,Clouds,dailyrainin,SoftwareType,DateUTC
2013-05-30 06:59:00,72.5,65.6,30.08,SSE,155,0.0,0.0,79,0.00,,,0.00,Wunderground v.1.15,2013-05-30 11:59:00,
2013-05-30 07:01:00,72.6,65.7,30.08,SSE,167,1.0,1.0,79,0.00,,,0.00,Wunderground v.1.15,2013-05-30 12:01:00,
2013-05-30 07:06:00,72.6,65.7,30.08,SSE,159,1.0,2.0,79,0.00,,,0.00,Wunderground v.1.15,2013-05-30 12:06:00,
2013-05-30 07:11:00,72.7,65.8,30.08,ESE,107,1.0,1.0,79,0.00,,,0.00,Wunderground v.1.15,2013-05-30 12:11:00,
2013-05-30 07:16:00,72.7,65.8,30.08,ENE,65,1.0,3.0,79,0.00,,,0.00,Wunderground v.1.15,2013-05-30 12:16:00,
2013-05-30 07:22:00,72.7,65.8,30.08,WSW,239,1.0,2.0,79,0.00,,,0.00,Wunderground v.1.15,2013-05-30 12:22:00,
2013-05-30 07:28:00,72.8,65.9,30.08,East,92,1.0,2.0,79,0.00,,,0.00,Wunderground v.1.15,2013-05-30 12:28:00,
2013-05-30 07:33:00,72.8,66.3,30.08,NNE,24,1.0,4.0,80,0.00,,,0.00,Wunderground v.1.15,2013-05-30 12:33:00,
2013-05-30 07:38:00,72.9,66.0,30.08,NW,321,1.0,4.0,79,0.00,,,0.00,Wunderground v.1.15,2013-05-30 12:38:00,
2013-05-30 07:44:00,73.0,66.1,30.08,SSE,161,1.0,1.0,79,0.00,,,0.00,Wunderground v.1.15,2013-05-30 12:44:00,
2013-05-30 07:50:00,73.1,66.2,30.09,South,182,1.0,1.0,79,0.00,,,0.00,Wunderground v.1.15,2013-05-30 12:50:00,
2013-05-30 08:15:00,73.7,66.4,30.09,South,188,1.0,3.0,78,0.00,,,0.00,Wunderground v.1.15,2013-05-30 13:15:00,
2013-05-30 08:20:00,73.9,67.0,30.09,South,184,1.0,3.0,79,0.00,,,0.00,Wunderground v.1.15,2013-05-30 13:20:00,
2013-05-30 08:25:00,74.1,66.8,30.09,SSE,157,2.0,2.0,78,0.00,,,0.00,Wunderground v.1.15,2013-05-30 13:25:00,
2013-05-30 08:31:00,74.5,67.2,30.09,SE,144,1.0,3.0,78,0.00,,,0.00,Wunderground v.1.15,2013-05-30 13:31:00,
2013-05-30 08:37:00,74.8,67.5,30.09,South,178,1.0,3.0,78,0.00,,,0.00,Wunderground v.1.15,2013-05-30 13:37:00,
2013-05-30 08:42:00,74.9,67.6,30.09,SE,126,2.0,3.0,78,0.00,,,0.00,Wunderground v.1.15,2013-05-30 13:42:00,
2013-05-30 08:48:00,75.2,67.5,30.09,SSW,211,2.0,4.0,77,0.00,,,0.00,Wunderground v.1.15,2013-05-30 13:48:00,
2013-05-30 08:53:00,75.7,68.0,30.09,South,179,2.0,5.0,77,0.00,,,0.00,Wunderground v.1.15,2013-05-30 13:53:00,
2013-05-30 08:59:00,76.1,68.0,30.09,SSE,168,3.0,5.0,76,0.00,,,0.00,Wunderground v.1.15,2013-05-30 13:59:00,
2013-05-30 09:04:00,76.3,68.2,30.09,SSE,163,2.0,3.0,76,0.00,,,0.00,Wunderground v.1.15,2013-05-30 14:04:00,
2013-05-30 09:10:00,76.6,68.5,30.08,South,180,2.0,3.0,76,0.00,,,0.00,Wunderground v.1.15,2013-05-30 14:10:00,
2013-05-30 09:15:00,76.9,68.4,30.08,SSE,165,3.0,4.0,75,0.00,,,0.00,Wunderground v.1.15,2013-05-30 14:15:00,
2013-05-30 09:21:00,77.6,68.3,30.08,SSW,212,3.0,6.0,73,0.00,,,0.00,Wunderground v.1.15,2013-05-30 14:21:00,
2013-05-30 09:26:00,78.2,68.0,30.08,SW,235,5.0,6.0,71,0.00,,,0.00,Wunderground v.1.15,2013-05-30 14:26:00,
2013-05-30 09:32:00,78.7,68.5,30.08,SSW,200,6.0,8.0,71,0.00,,,0.00,Wunderground v.1.15,2013-05-30 14:32:00,
2013-05-30 09:38:00,79.1,69.3,30.08,SSW,211,6.0,8.0,72,0.00,,,0.00,Wunderground v.1.15,2013-05-30 14:38:00,
2013-05-30 09:44:00,79.9,68.8,30.08,SW,232,7.0,9.0,69,0.00,,,0.00,Wunderground v.1.15,2013-05-30 14:44:00,
2013-05-30 09:50:00,80.5,69.0,30.08,WSW,243,7.0,11.0,68,0.00,,,0.00,Wunderground v.1.15,2013-05-30 14:50:00,
2013-05-30 09:55:00,80.5,68.5,30.08,West,272,7.0,10.0,67,0.00,,,0.00,Wunderground v.1.15,2013-05-30 14:55:00,
2013-05-30 10:02:00,80.1,68.2,30.08,SW,229,7.0,7.0,67,0.00,,,0.00,Wunderground v.1.15,2013-05-30 15:02:00,
2013-05-30 10:08:00,80.7,69.6,30.08,SW,232,7.0,8.0,69,0.00,,,0.00,Wunderground v.1.15,2013-05-30 15:08:00,
2013-05-30 10:13:00,81.1,69.1,30.08,SW,225,7.0,13.0,67,0.00,,,0.00,Wunderground v.1.15,2013-05-30 15:13:00,
2013-05-30 10:19:00,81.3,68.9,30.08,SSW,200,8.0,13.0,66,0.00,,,0.00,Wunderground v.1.15,2013-05-30 15:19:00,
2013-05-30 10:24:00,81.4,68.9,30.07,SSE,160,7.0,8.0,66,0.00,,,0.00,Wunderground v.1.15,2013-05-30 15:24:00,
2013-05-30 10:32:00,81.3,68.9,30.07,South,183,8.0,9.0,66,0.00,,,0.00,Wunderground v.1.15,2013-05-30 15:32:00,
2013-05-30 10:38:00,81.1,68.7,30.07,SW,229,10.0,16.0,66,0.00,,,0.00,Wunderground v.1.15,2013-05-30 15:38:00,
2013-05-30 10:43:00,81.7,68.8,30.07,SW,232,10.0,10.0,65,0.00,,,0.00,Wunderground v.1.15,2013-05-30 15:43:00,
2013-05-30 10:48:00,81.3,68.4,30.07,SSW,213,10.0,12.0,65,0.00,,,0.00,Wunderground v.1.15,2013-05-30 15:48:00,
2013-05-30 10:54:00,82.0,69.5,30.07,WSW,246,10.0,14.0,66,0.00,,,0.00,Wunderground v.1.15,2013-05-30 15:54:00,
2013-05-30 10:59:00,83.1,69.2,30.07,South,188,9.0,14.0,63,0.00,,,0.00,Wunderground v.1.15,2013-05-30 15:59:00,
2013-05-30 11:05:00,83.1,68.7,30.07,South,187,8.0,9.0,62,0.00,,,0.00,Wunderground v.1.15,2013-05-30 16:05:00,
2013-05-30 11:10:00,82.8,68.9,30.07,SW,227,8.0,15.0,63,0.00,,,0.00,Wunderground v.1.15,2013-05-30 16:10:00,
2013-05-30 11:15:00,82.5,69.5,30.06,SSE,163,7.0,10.0,65,0.00,,,0.00,Wunderground v.1.15,2013-05-30 16:15:00,
2013-05-30 11:21:00,83.0,70.0,30.07,SSE,161,8.0,13.0,65,0.00,,,0.00,Wunderground v.1.15,2013-05-30 16:21:00,
2013-05-30 11:26:00,84.0,70.0,30.06,SSW,204,9.0,11.0,63,0.00,,,0.00,Wunderground v.1.15,2013-05-30 16:26:00,
2013-05-30 11:33:00,84.3,69.4,30.06,SSW,209,8.0,10.0,61,0.00,,,0.00,Wunderground v.1.15,2013-05-30 16:33:00,
2013-05-30 11:39:00,83.4,69.0,30.06,SSW,205,8.0,10.0,62,0.00,,,0.00,Wunderground v.1.15,2013-05-30 16:39:00,
2013-05-30 11:45:00,83.0,69.6,30.06,South,186,9.0,9.0,64,0.00,,,0.00,Wunderground v.1.15,2013-05-30 16:45:00,
2013-05-30 11:50:00,83.0,69.1,30.06,SSW,194,7.0,10.0,63,0.00,,,0.00,Wunderground v.1.15,2013-05-30 16:50:00,
2013-05-30 11:56:00,82.5,68.6,30.06,SSW,209,8.0,12.0,63,0.00,,,0.00,Wunderground v.1.15,2013-05-30 16:56:00,
2013-05-30 12:02:00,82.4,69.0,30.06,SSW,204,7.0,7.0,64,0.00,,,0.00,Wunderground v.1.15,2013-05-30 17:02:00,
2013-05-30 12:07:00,83.1,70.1,30.06,SSW,192,7.0,11.0,65,0.00,,,0.00,Wunderground v.1.15,2013-05-30 17:07:00,
2013-05-30 12:13:00,83.4,69.9,30.06,South,176,7.0,7.0,64,0.00,,,0.00,Wunderground v.1.15,2013-05-30 17:13:00,
2013-05-30 12:18:00,83.4,69.9,30.06,South,188,6.0,10.0,64,0.00,,,0.00,Wunderground v.1.15,2013-05-30 17:18:00,
2013-05-30 12:23:00,83.3,69.8,30.06,WSW,248,6.0,9.0,64,0.00,,,0.00,Wunderground v.1.15,2013-05-30 17:23:00,
2013-05-30 12:28:00,83.5,70.0,30.06,SW,229,6.0,9.0,64,0.00,,,0.00,Wunderground v.1.15,2013-05-30 17:28:00,
2013-05-30 12:33:00,83.7,69.3,30.06,SW,229,7.0,9.0,62,0.00,,,0.00,Wunderground v.1.15,2013-05-30 17:33:00,
2013-05-30 12:38:00,84.0,69.1,30.07,SW,218,7.0,15.0,61,0.00,,,0.00,Wunderground v.1.15,2013-05-30 17:38:00,
2013-05-30 12:44:00,83.2,68.8,30.06,SW,215,8.0,11.0,62,0.00,,,0.00,Wunderground v.1.15,2013-05-30 17:44:00,
2013-05-30 12:49:00,83.2,69.8,30.06,SSW,211,8.0,11.0,64,0.00,,,0.00,Wunderground v.1.15,2013-05-30 17:49:00,
2013-05-30 12:54:00,83.3,69.4,30.06,SW,217,8.0,9.0,63,0.00,,,0.00,Wunderground v.1.15,2013-05-30 17:54:00,
2013-05-30 13:02:00,83.2,69.8,30.06,SSW,201,8.0,8.0,64,0.00,,,0.00,Wunderground v.1.15,2013-05-30 18:02:00,
2013-05-30 13:07:00,84.1,70.1,30.05,SW,226,7.0,11.0,63,0.00,,,0.00,Wunderground v.1.15,2013-05-30 18:07:00,
2013-05-30 13:13:00,84.6,70.1,30.05,SSE,167,7.0,9.0,62,0.00,,,0.00,Wunderground v.1.15,2013-05-30 18:13:00,
2013-05-30 13:18:00,84.8,69.4,30.05,SSW,208,9.0,14.0,60,0.00,,,0.00,Wunderground v.1.15,2013-05-30 18:18:00,
2013-05-30 13:24:00,84.6,69.7,30.05,WSW,254,8.0,8.0,61,0.00,,,0.00,Wunderground v.1.15,2013-05-30 18:24:00,
2013-05-30 13:29:00,84.4,69.0,30.04,SW,236,7.0,13.0,60,0.00,,,0.00,Wunderground v.1.15,2013-05-30 18:29:00,
2013-05-30 13:34:00,84.0,69.6,30.04,WSW,239,8.0,12.0,62,0.00,,,0.00,Wunderground v.1.15,2013-05-30 18:34:00,
2013-05-30 13:40:00,83.7,69.3,30.04,WSW,240,8.0,12.0,62,0.00,,,0.00,Wunderground v.1.15,2013-05-30 18:40:00,
2013-05-30 13:46:00,85.0,70.0,30.03,SW,216,7.0,12.0,61,0.00,,,0.00,Wunderground v.1.15,2013-05-30 18:46:00,
2013-05-30 13:51:00,85.5,69.5,30.03,SE,138,7.0,12.0,59,0.00,,,0.00,Wunderground v.1.15,2013-05-30 18:51:00,
2013-05-30 13:56:00,85.2,69.3,30.02,WSW,252,7.0,9.0,59,0.00,,,0.00,Wunderground v.1.15,2013-05-30 18:56:00,
2013-05-30 14:02:00,85.0,69.1,30.02,SW,219,8.0,8.0,59,0.00,,,0.00,Wunderground v.1.15,2013-05-30 19:02:00,
2013-05-30 14:08:00,85.1,69.2,30.02,SW,217,7.0,10.0,59,0.00,,,0.00,Wunderground v.1.15,2013-05-30 19:08:00,
2013-05-30 14:13:00,85.3,69.3,30.01,SSW,195,8.0,9.0,59,0.00,,,0.00,Wunderground v.1.15,2013-05-30 19:13:00,
2013-05-30 14:19:00,85.1,69.2,30.01,South,190,9.0,14.0,59,0.00,,,0.00,Wunderground v.1.15,2013-05-30 19:19:00,
2013-05-30 14:24:00,84.9,69.5,30.01,SW,221,8.0,12.0,60,0.00,,,0.00,Wunderground v.1.15,2013-05-30 19:24:00,
2013-05-30 14:30:00,84.9,69.0,30.01,South,190,7.0,12.0,59,0.00,,,0.00,Wunderground v.1.15,2013-05-30 19:30:00,
2013-05-30 14:35:00,85.2,69.7,30.01,South,175,7.0,10.0,60,0.00,,,0.00,Wunderground v.1.15,2013-05-30 19:35:00,
2013-05-30 14:41:00,85.2,69.7,30.00,WSW,240,6.0,10.0,60,0.00,,,0.00,Wunderground v.1.15,2013-05-30 19:41:00,
2013-05-30 14:46:00,85.7,69.2,30.00,South,170,6.0,10.0,58,0.00,,,0.00,Wunderground v.1.15,2013-05-30 19:46:00,
2013-05-30 14:51:00,85.9,69.9,30.00,SW,226,6.0,10.0,59,0.00,,,0.00,Wunderground v.1.15,2013-05-30 19:51:00,
2013-05-30 14:57:00,86.2,70.2,30.00,SW,225,6.0,8.0,59,0.00,,,0.00,Wunderground v.1.15,2013-05-30 19:57:00,
2013-05-30 15:02:00,86.4,69.9,30.00,SSW,202,6.0,11.0,58,0.00,,,0.00,Wunderground v.1.15,2013-05-30 20:02:00,
2013-05-30 15:08:00,86.6,69.6,30.00,SW,232,7.0,11.0,57,0.00,,,0.00,Wunderground v.1.15,2013-05-30 20:08:00,
2013-05-30 15:22:00,84.8,69.4,30.00,WSW,237,6.0,6.0,60,0.00,,,0.00,Wunderground v.1.15,2013-05-30 20:22:00,
2013-05-30 15:28:00,85.4,69.9,29.99,SSW,200,5.0,10.0,60,0.00,,,0.00,Wunderground v.1.15,2013-05-30 20:28:00,
2013-05-30 15:33:00,86.0,70.0,29.99,SW,217,6.0,8.0,59,0.00,,,0.00,Wunderground v.1.15,2013-05-30 20:33:00,
2013-05-30 15:39:00,86.0,69.5,29.99,South,183,7.0,10.0,58,0.00,,,0.00,Wunderground v.1.15,2013-05-30 20:39:00,
2013-05-30 15:45:00,86.6,70.1,29.99,WSW,249,7.0,11.0,58,0.00,,,0.00,Wunderground v.1.15,2013-05-30 20:45:00,
2013-05-30 15:51:00,86.2,69.7,29.99,South,189,6.0,11.0,58,0.00,,,0.00,Wunderground v.1.15,2013-05-30 20:51:00,
2013-05-30 15:56:00,86.1,70.1,29.99,WSW,240,5.0,6.0,59,0.00,,,0.00,Wunderground v.1.15,2013-05-30 20:56:00,
2013-05-30 16:02:00,85.9,70.4,29.99,South,179,5.0,5.0,60,0.00,,,0.00,Wunderground v.1.15,2013-05-30 21:02:00,
2013-05-30 16:07:00,85.4,69.9,29.98,SSW,198,5.0,7.0,60,0.00,,,0.00,Wunderground v.1.15,2013-05-30 21:07:00,
2013-05-30 16:14:00,84.5,69.6,29.98,SW,215,6.0,7.0,61,0.00,,,0.00,Wunderground v.1.15,2013-05-30 21:14:00,
2013-05-30 16:19:00,83.9,69.5,29.98,South,191,5.0,7.0,62,0.00,,,0.00,Wunderground v.1.15,2013-05-30 21:19:00,
2013-05-30 16:25:00,83.5,69.1,29.98,SSE,155,6.0,9.0,62,0.00,,,0.00,Wunderground v.1.15,2013-05-30 21:25:00,
2013-05-30 16:30:00,83.2,69.3,29.98,South,178,6.0,9.0,63,0.00,,,0.00,Wunderground v.1.15,2013-05-30 21:30:00,
2013-05-30 18:12:00,80.2,69.9,29.97,South,189,2.0,2.0,71,0.00,,,0.00,Wunderground v.1.15,2013-05-30 23:12:00,
2013-05-30 18:17:00,80.3,70.0,29.97,SSE,165,2.0,2.0,71,0.00,,,0.00,Wunderground v.1.15,2013-05-30 23:17:00,
2013-05-30 18:23:00,80.5,70.2,29.97,SE,132,2.0,5.0,71,0.00,,,0.00,Wunderground v.1.15,2013-05-30 23:23:00,
2013-05-30 18:28:00,80.7,70.4,29.97,South,183,3.0,3.0,71,0.00,,,0.00,Wunderground v.1.15,2013-05-30 23:28:00,
2013-05-30 18:34:00,80.8,70.1,29.97,SSW,199,2.0,3.0,70,0.00,,,0.00,Wunderground v.1.15,2013-05-30 23:34:00,
2013-05-30 18:39:00,80.9,69.8,29.97,SSE,148,3.0,5.0,69,0.00,,,0.00,Wunderground v.1.15,2013-05-30 23:39:00,
2013-05-30 18:44:00,81.1,70.0,29.96,SSW,202,3.0,5.0,69,0.00,,,0.00,Wunderground v.1.15,2013-05-30 23:44:00,
2013-05-30 18:49:00,81.2,69.6,29.96,SSE,163,3.0,4.0,68,0.00,,,0.00,Wunderground v.1.15,2013-05-30 23:49:00,
2013-05-30 18:54:00,81.2,69.6,29.96,South,188,3.0,5.0,68,0.00,,,0.00,Wunderground v.1.15,2013-05-30 23:54:00,
2013-05-30 18:59:00,81.1,69.5,29.96,SSE,167,3.0,4.0,68,0.00,,,0.00,Wunderground v.1.15,2013-05-30 23:59:00,
2013-05-30 19:04:00,81.0,69.4,29.96,South,182,3.0,5.0,68,0.00,,,0.00,Wunderground v.1.15,2013-05-31 00:04:00,